[[{"header":{"parameterUnit":"m.s-1","parameterCategory":1,"la1":30.2991,"la2":30.254,"lo1":-89.0895,"lo2":-89.0444,"dy":0.0017,"dx":0.0017,"nx":28,"ny":28,"refTime":"2025-08-17T09:00:00:Z","depth":0,"parameterNumber":2,"parameterNumberName":"U-component_of_WINDS"},"data":[0,0,0,0,0,0,0,0,0,0,0,0,0,0,0,0,0,0,0,0,0,0,0,0,0,0,0,0,0,0,0,0,0,0,0,0,0,0,0,0,0,0,0,0,0,0,0,0,0,0,0,0,0,0,0,0,0,0,0.3585,0.3585,0,0.3591,0.3591,0.3591,0.3576,0.3575,0.3575,0.3574,0.3581,0.3582,0.3582,0,0,0,0,0,0,0,0,0,0,0,0,0,0.3561,0.3561,0.3585,0.3585,0.3585,0.3591,0.3591,0.3591,0.3576,0.3575,0.3575,0.3574,0.3581,0.3582,0.3582,0,0,0,0,0,0,0,0,0,0,0,0,0,0.3569,0.3561,0.3585,0.3578,0.3578,0.3591,0.3591,0.3591,0.3576,0.3575,0.3575,0.3574,0.3581,0.3581,0.3582,0.3603,0,0,0.3585,0.3586,0,0,0,0,0,0,0,0,0.3569,0.357,0.3579,0.3579,0.3578,0.3582,0.3585,0.3595,0.3576,0.3577,0.3574,0.3574,0.3582,0.3583,0.3585,0.3603,0.3603,0.3585,0.3586,0.3586,0.3587,0,0,0,0,0,0,0,0.3568,0.357,0.3587,0.3579,0.3579,0.3575,0.3575,0.3587,0.3583,0.3577,0.3575,0.3576,0.3581,0.3585,0.3585,0.3603,0.3585,0.3586,0.3587,0.3587,0.3638,0.3639,0,0,0,0,0,0,0.3569,0.357,0.3587,0.3587,0.3572,0.3576,0.3577,0.3581,0.3583,0.3583,0.3577,0.3576,0.3583,0.3584,0.3586,0.361,0.3586,0.3587,0.3588,0.3638,0.3639,0.3639,0,0,0,0,0,0,0.3568,0.357,0.3587,0.3578,0.358,0.3577,0.3583,0.3582,0.3585,0.3583,0.3583,0.3581,0.3583,0.3584,0.3599,0.361,0.3588,0.3588,0.3637,0.3638,0.3639,0.3658,0,0,0,0,0,0,0.3567,0.357,0.3578,0.3578,0.3581,0.3599,0.3583,0.3582,0.3586,0.3585,0.3587,0.3586,0.3582,0.3597,0.36,0.3611,0.3589,0.3636,0.3637,0.3639,0.3656,0.366,0.3663,0,0,0,0,0,0.3567,0.3583,0.3578,0.358,0.359,0.36,0.3601,0.3596,0.3587,0.3595,0.3594,0.3586,0.3608,0.3599,0.3601,0.3613,0.3635,0.3637,0.3639,0.3655,0.3659,0.3663,0,0,0,0,0,0,0.3583,0.3583,0.3577,0.3594,0.3597,0.3597,0.3607,0.3601,0.3606,0.3605,0.3598,0.3599,0.3614,0.3615,0.3605,0.3633,0.362,0.3622,0.3632,0.3636,0.3639,0.3638,0.359,0,0,0,0,0,0.3588,0.3597,0.3596,0.3611,0.3613,0.361,0.3614,0.361,0.3613,0.3614,0.3614,0.3618,0.3625,0.3631,0.3638,0.3657,0.3657,0.3666,0.3669,0.3672,0.3674,0.3684,0.3688,0.3645,0.3645,0.3645,0,0,0.36,0.3601,0.3606,0.3614,0.3616,0.3625,0.3611,0.3621,0.3628,0.3616,0.3629,0.363,0.3633,0.365,0.3657,0.3651,0.3686,0.3674,0.3676,0.3677,0.3687,0.3691,0.3694,0.3647,0.3646,0.3646,0,0,0.3625,0.3627,0.364,0.3642,0.3645,0.3643,0.3646,0.3648,0.3647,0.3661,0.3653,0.3661,0.3674,0.3677,0.368,0.3708,0.3701,0.3711,0.3727,0.3737,0.3741,0.3744,0.3754,0.3758,0.3713,0.3713,0.3713,0,0.3639,0.3652,0.3647,0.3658,0.3662,0.3651,0.3665,0.3667,0.3673,0.3676,0.3669,0.3686,0.3687,0.3705,0.3712,0.3715,0.3718,0.371,0.3741,0.3744,0.3746,0.3756,0.376,0.3714,0.3714,0.3714,0.3713,0,0.367,0.3679,0.3689,0.3694,0.3699,0.3711,0.3708,0.3714,0.371,0.3709,0.3723,0.3725,0.3732,0.3736,0.3732,0.3754,0.375,0.3742,0.3729,0.3752,0.3761,0.3765,0.3715,0.3715,0.3715,0.3714,0,0,0.3705,0.3708,0.3712,0.3714,0.3718,0.3725,0.3737,0.3744,0.3749,0.3754,0.3764,0.3776,0.3769,0.3772,0.3769,0.3778,0.3801,0.3769,0.3769,0.3775,0.3825,0.3831,0.3836,0.3796,0.3797,0.3797,0.3825,0,0.373,0.375,0.3746,0.3766,0.3775,0.3766,0.3776,0.378,0.3779,0.3787,0.3786,0.3795,0.3785,0.3787,0.3796,0.3796,0.3811,0.3794,0.3806,0.3806,0.3805,0.3841,0.3847,0.3873,0.3829,0.3829,0.383,0,0.3763,0.3768,0.3789,0.3792,0.3795,0.3805,0.3811,0.3819,0.3823,0.3822,0.3827,0.3821,0.3834,0.3821,0.3838,0.3827,0.3831,0.3832,0.3833,0.3834,0.3819,0.3843,0.3881,0.3885,0.3835,0.3835,0.3834,0,0.3787,0.38,0.3814,0.3817,0.382,0.3827,0.3828,0.3832,0.3837,0.3843,0.3846,0.3854,0.3858,0.3864,0.3861,0.3852,0.3879,0.3866,0.3879,0.3879,0.3885,0.3885,0.3925,0.3888,0.3888,0.3888,0.3888,0,0.3816,0.3829,0.3825,0.3834,0.3849,0.3844,0.3859,0.3859,0.3863,0.3872,0.3864,0.3873,0.3869,0.3877,0.3875,0.389,0.3892,0.3892,0.3891,0.3893,0.3893,0.3896,0.3894,0.3889,0.3889,0.3888,0.3888,0,0.3845,0.3843,0.3858,0.386,0.3861,0.3872,0.3874,0.3882,0.3881,0.3893,0.3896,0.3895,0.3904,0.3902,0.3913,0.3912,0.3931,0.3928,0.3929,0.3929,0.3942,0.3941,0.3986,0.3992,0.3951,0.3951,0.3952,0,0.3864,0.3874,0.3877,0.3882,0.3885,0.3894,0.3899,0.3895,0.3901,0.3907,0.3915,0.3924,0.3931,0.3947,0.3948,0.3956,0.3954,0.3969,0.3955,0.3956,0.3954,0.3954,0.3955,0.3972,0.3972,0.3972,0.3973,0,0.3897,0.3896,0.3903,0.3911,0.3917,0.3923,0.3928,0.3933,0.393,0.3937,0.3947,0.3953,0.3964,0.3973,0.3982,0.3984,0.3978,0.3977,0.3981,0.3982,0.3983,0.3983,0.3937,0.3976,0.3976,0.3976,0.3975,0.3975,0.3922,0.393,0.3934,0.3943,0.3947,0.3952,0.396,0.3961,0.3969,0.3978,0.3975,0.3987,0.3991,0.4002,0.4005,0.4014,0.4009,0.4014,0.4015,0.4017,0.4018,0.3982,0.4016,0.4016,0.4016,0.4016,0.4016,0,0.3955,0.3957,0.3965,0.3973,0.398,0.3974,0.398,0.3986,0.3997,0.4001,0.4009,0.4021,0.403,0.4032,0.4041,0.4048,0.4046,0.4051,0.4051,0.4051,0.4023,0.4019,0.4053,0.4053,0.4053,0.4053,0.4053,0.4053,0.3973,0.3987,0.3987,0.4003,0.4005,0.4017,0.4021,0.4026,0.4029,0.4043,0.4051,0.4052,0.4056,0.4065,0.4074,0.4074,0.4078,0.4084,0.4084,0.4057,0.4053,0.405,0.4046,0.4085,0.4085,0.4111,0.4112,0.4112]},{"header":{"parameterUnit":"m.s-1","parameterCategory":1,"la1":30.2991,"la2":30.254,"lo1":-89.0895,"lo2":-89.0444,"dy":0.0017,"dx":0.0017,"nx":28,"ny":28,"refTime":"2025-08-17T09:00:00:Z","depth":0,"parameterNumber":3,"parameterNumberName":"V-component_of_WINDS"},"data":[0,0,0,0,0,0,0,0,0,0,0,0,0,0,0,0,0,0,0,0,0,0,0,0,0,0,0,0,0,0,0,0,0,0,0,0,0,0,0,0,0,0,0,0,0,0,0,0,0,0,0,0,0,0,0,0,0,0,-2.1024,-2.1026,0,-2.117,-2.1172,-2.1173,-2.1214,-2.1213,-2.1213,-2.1212,-2.1361,-2.1366,-2.137,0,0,0,0,0,0,0,0,0,0,0,0,0,-2.0781,-2.0785,-2.1024,-2.1026,-2.1028,-2.117,-2.1172,-2.1174,-2.1214,-2.1213,-2.1212,-2.1211,-2.136,-2.1365,-2.1371,0,0,0,0,0,0,0,0,0,0,0,0,0,-2.0903,-2.0787,-2.1024,-2.1065,-2.107,-2.1169,-2.1172,-2.1174,-2.1215,-2.1213,-2.1212,-2.1211,-2.1358,-2.1365,-2.1372,-2.144,0,0,-2.1393,-2.1397,0,0,0,0,0,0,0,0,-2.0896,-2.0912,-2.1057,-2.1062,-2.1068,-2.1173,-2.1141,-2.1264,-2.1215,-2.116,-2.1212,-2.121,-2.1299,-2.1311,-2.1341,-2.1447,-2.1454,-2.1394,-2.1398,-2.1401,-2.1403,0,0,0,0,0,0,0,-2.0887,-2.0906,-2.1082,-2.1059,-2.1066,-2.1077,-2.1093,-2.1164,-2.1235,-2.1165,-2.1168,-2.1185,-2.1302,-2.1334,-2.1345,-2.1456,-2.1394,-2.14,-2.1405,-2.1407,-2.1626,-2.1627,0,0,0,0,0,0,-2.0872,-2.0898,-2.1077,-2.1086,-2.0977,-2.1082,-2.11,-2.114,-2.1234,-2.1247,-2.1185,-2.1186,-2.1323,-2.1337,-2.1351,-2.1437,-2.1401,-2.1408,-2.1412,-2.1624,-2.1626,-2.1628,0,0,0,0,0,0,-2.0866,-2.0887,-2.1071,-2.0993,-2.1018,-2.1087,-2.1133,-2.1144,-2.1176,-2.125,-2.1263,-2.1205,-2.1322,-2.1341,-2.1418,-2.1443,-2.1411,-2.1418,-2.1622,-2.1625,-2.1627,-2.161,0,0,0,0,0,0,-2.0859,-2.0885,-2.0912,-2.0994,-2.1022,-2.1136,-2.1134,-2.1148,-2.1188,-2.119,-2.1272,-2.1284,-2.1323,-2.1407,-2.1425,-2.1452,-2.1423,-2.162,-2.1623,-2.1626,-2.1608,-2.1611,-2.1613,0,0,0,0,0,-2.085,-2.0901,-2.0913,-2.0934,-2.1056,-2.1137,-2.1153,-2.1196,-2.119,-2.1217,-2.1265,-2.1282,-2.1437,-2.1414,-2.1435,-2.1464,-2.1619,-2.1622,-2.1626,-2.1607,-2.161,-2.1613,0,0,0,0,0,0,-2.082,-2.0912,-2.0927,-2.1005,-2.1063,-2.1144,-2.1179,-2.1199,-2.126,-2.1259,-2.131,-2.1328,-2.1402,-2.1441,-2.1414,-2.1536,-2.1528,-2.1536,-2.1507,-2.1511,-2.1514,-2.1502,-2.1429,0,0,0,0,0,-2.0822,-2.088,-2.0958,-2.102,-2.1048,-2.1109,-2.1146,-2.1174,-2.1236,-2.1261,-2.1314,-2.1374,-2.1436,-2.1476,-2.1537,-2.1615,-2.1633,-2.1645,-2.1648,-2.1649,-2.1655,-2.1699,-2.1705,-2.1639,-2.1639,-2.1639,0,0,-2.0828,-2.0886,-2.0919,-2.1015,-2.1063,-2.1122,-2.1129,-2.1191,-2.1235,-2.127,-2.1346,-2.1388,-2.1458,-2.1535,-2.1572,-2.157,-2.1678,-2.1654,-2.1655,-2.166,-2.1703,-2.1709,-2.1715,-2.1641,-2.1641,-2.164,0,0,-2.0868,-2.0918,-2.0974,-2.1023,-2.1096,-2.1136,-2.1149,-2.1228,-2.1257,-2.1334,-2.1361,-2.1415,-2.1521,-2.157,-2.1609,-2.1668,-2.1686,-2.1687,-2.17,-2.1742,-2.1747,-2.1752,-2.1773,-2.178,-2.1693,-2.1693,-2.1693,0,-2.0865,-2.0955,-2.1001,-2.1062,-2.1103,-2.1139,-2.1196,-2.1241,-2.133,-2.1358,-2.1355,-2.149,-2.154,-2.1629,-2.1643,-2.1674,-2.1691,-2.1677,-2.1743,-2.1748,-2.1753,-2.1774,-2.1781,-2.1692,-2.1692,-2.1692,-2.1692,0,-2.0948,-2.101,-2.1047,-2.1133,-2.1179,-2.1238,-2.1293,-2.1334,-2.1359,-2.1399,-2.1478,-2.1539,-2.1613,-2.1637,-2.1662,-2.173,-2.1726,-2.1733,-2.1726,-2.1758,-2.1778,-2.1787,-2.1692,-2.1692,-2.1692,-2.1692,0,0,-2.0972,-2.1082,-2.1095,-2.1134,-2.1218,-2.1267,-2.1328,-2.1401,-2.1435,-2.1496,-2.1548,-2.1638,-2.1644,-2.1688,-2.1719,-2.1756,-2.1799,-2.1758,-2.176,-2.1762,-2.1877,-2.1871,-2.1879,-2.1811,-2.1813,-2.1814,-2.1871,0,-2.1021,-2.1131,-2.1175,-2.1264,-2.1322,-2.1356,-2.141,-2.1467,-2.1507,-2.1562,-2.1606,-2.1668,-2.1672,-2.1699,-2.1737,-2.1785,-2.1822,-2.1782,-2.186,-2.1862,-2.184,-2.189,-2.1884,-2.1934,-2.1879,-2.1881,-2.1882,0,-2.1094,-2.1155,-2.125,-2.1327,-2.1353,-2.1399,-2.147,-2.1522,-2.1588,-2.1615,-2.1664,-2.1693,-2.1759,-2.1749,-2.184,-2.1811,-2.1846,-2.1875,-2.1878,-2.1886,-2.1873,-2.1898,-2.1951,-2.1958,-2.1894,-2.1893,-2.1892,0,-2.11,-2.1207,-2.1277,-2.131,-2.1402,-2.1434,-2.1473,-2.1538,-2.1579,-2.1641,-2.1669,-2.1737,-2.1775,-2.1828,-2.1875,-2.1863,-2.1961,-2.1955,-2.1985,-2.1983,-2.2002,-2.2,-2.2061,-2.2027,-2.2026,-2.2026,-2.2026,0,-2.115,-2.1207,-2.1281,-2.1324,-2.1389,-2.1439,-2.1502,-2.1544,-2.1602,-2.1654,-2.1689,-2.1737,-2.1797,-2.1853,-2.189,-2.1959,-2.1976,-2.1999,-2.2008,-2.1996,-2.1993,-2.2018,-2.2016,-2.2028,-2.2028,-2.2028,-2.2027,0,-2.1168,-2.122,-2.1299,-2.138,-2.1401,-2.1445,-2.1514,-2.1558,-2.16,-2.1666,-2.1684,-2.175,-2.1818,-2.187,-2.1959,-2.1984,-2.2057,-2.2067,-2.2034,-2.2039,-2.2065,-2.2061,-2.2143,-2.2156,-2.2114,-2.2114,-2.2114,0,-2.1196,-2.124,-2.1325,-2.1363,-2.1402,-2.1462,-2.1505,-2.1556,-2.1599,-2.1678,-2.1712,-2.1782,-2.1841,-2.1948,-2.2004,-2.2072,-2.2083,-2.2108,-2.2094,-2.208,-2.2083,-2.2079,-2.2084,-2.2109,-2.2109,-2.2109,-2.2109,0,-2.1239,-2.1263,-2.1323,-2.1392,-2.1441,-2.1498,-2.1556,-2.1585,-2.1647,-2.1693,-2.1763,-2.1809,-2.1899,-2.1969,-2.2043,-2.2084,-2.2107,-2.2113,-2.2124,-2.211,-2.2089,-2.21,-2.2038,-2.2111,-2.2111,-2.211,-2.211,-2.211,-2.1263,-2.1304,-2.137,-2.1436,-2.1484,-2.1538,-2.1582,-2.163,-2.1689,-2.1767,-2.1794,-2.1866,-2.1932,-2.2033,-2.2075,-2.2132,-2.2133,-2.2148,-2.2152,-2.2154,-2.2153,-2.2081,-2.2146,-2.2146,-2.2146,-2.2146,-2.2146,0,-2.1308,-2.1352,-2.1412,-2.1491,-2.1543,-2.1561,-2.1626,-2.1668,-2.173,-2.179,-2.1847,-2.1928,-2.1995,-2.2057,-2.2128,-2.2162,-2.2174,-2.2178,-2.2176,-2.2185,-2.2148,-2.2132,-2.2167,-2.2167,-2.2167,-2.2167,-2.2167,-2.2167,-2.1337,-2.1407,-2.1439,-2.1534,-2.1579,-2.1649,-2.1685,-2.1734,-2.1781,-2.187,-2.1926,-2.1966,-2.2027,-2.2102,-2.2165,-2.2182,-2.2206,-2.2207,-2.2226,-2.219,-2.2187,-2.2185,-2.217,-2.2212,-2.2212,-2.2258,-2.2258,-2.2259]}]]